Miscellaneous Local Product
Issued by NWS Hastings, NE

Home | Current Version | Previous Version | Graphics & Text | Print | Product List | Glossary On
Versions: 1 2 3 4 5 6 7 8 9 10 11 12 13 14 15 16 17 18 19 20 21 22 23 24 25 26 27 28 29 30 31 32 33 34 35 36 37 38 39 40 41 42 43 44 45 46 47 48 49 50
307
AXUS43 KGID 240002
MISGRI

GID CWA HOURLY WEATHER ROUNDUP
NATIONAL WEATHER SERVICE HASTINGS NE
600 PM CST MON JAN 23 2017

NOTE: "FAIR" INDICATES FEW OR NO CLOUDS BELOW 12,000 FEET WITH NO
SIGNIFICANT WEATHER AND/OR OBSTRUCTIONS TO VISIBILITY.

...SOUTH CENTRAL NEBRASKA...

CITY           SKY/WX    TMP DP  RH WIND       PRES   REMARKS
GRAND ISLAND   FOG       31  31 100 SE10      29.70F VSB 1/4 WCI  22
HASTINGS       CLOUDY    35  33  92 E9        29.69R FOG     WCI  28
KEARNEY        CLOUDY    34  30  86 E15       29.66R VSB 1/2 WCI  24
ORD            CLOUDY    33  29  85 E9        29.68R WCI  25
YORK           PTCLDY    34  32  93 SE8       29.73S WCI  27
AURORA         CLOUDY    32  32 100 SE12      29.71S FOG     WCI  23
LEXINGTON      CLEAR     43  33  67 SE10      29.62S
HOLDREGE       CLEAR     40  30  68 SE8       29.63R WCI  35
HEBRON         CLOUDY    36  32  85 E8        29.73R WCI  30

...NEBRASKA PANHANDLE...

CITY           SKY/WX    TMP DP  RH WIND       PRES   REMARKS
CHADRON        CLOUDY    28  24  85 NE9       29.63R WCI  19
ALLIANCE       PTCLDY    37  25  61 E5        29.56R WCI  33
SCOTTSBLUFF    CLEAR     37  27  67 CALM      29.56R
SIDNEY         CLOUDY    37  27  67 S7        29.56S WCI  32

...WESTERN AND NORTH CENTRAL NEBRASKA...

CITY           SKY/WX    TMP DP  RH WIND       PRES   REMARKS
VALENTINE      PTCLDY    39  27  62 E12       29.63R WCI  32
AINSWORTH      CLEAR     34  30  84 E12       29.64R WCI  26
ONEILL         CLOUDY    33  30  88 E9        29.71S WCI  25
BROKEN BOW     CLEAR     38  33  82 SE10      29.63R WCI  31
IMPERIAL       CLEAR     44  27  51 NE3       29.57R
NORTH PLATTE   CLEAR     42  28  57 SE8       29.59R
MCCOOK         CLEAR     46  31  55 E7        29.58R

...EASTERN NEBRASKA...

CITY           SKY/WX    TMP DP  RH WIND       PRES   REMARKS
NORFOLK        CLOUDY    32  28  85 E14       29.74R WCI  22
SO SIOUX CITY  CLOUDY    34  29  82 E6        29.81F WCI  29
TEKAMAH        CLOUDY    33  28  81 E7        29.81S WCI  27
COLUMBUS       CLOUDY    34  28  80 E9        29.75S WCI  26
ALBION         CLOUDY    35  31  87 E9        29.72R WCI  28
OMAHA EPPLEY   CLOUDY    34  27  75 SE10      29.82R WCI  26
OFFUTT AFB     MOCLDY    32  32  99 E9        29.80F WCI  25
MILLARD        CLOUDY    36  31  83 E8        29.80F WCI  29
LINCOLN        MOCLDY    35  31  85 E8        29.79R WCI  29
NEBRASKA CITY  CLOUDY    32  29  89 SE8       29.80F WCI  25
BEATRICE       CLEAR     36  32  88 E7        29.76S WCI  30
FALLS CITY     CLOUDY    35  31  85 E9        29.81S WCI  28

...NORTHERN KANSAS...

CITY           SKY/WX    TMP DP  RH WIND       PRES   REMARKS
GOODLAND       CLEAR     43  30  60 E8        29.53F
HILL CITY      CLEAR     48  33  56 SE7       29.59S
NORTON         CLEAR     45  28  53 E6        29.59R
PHILLIPSBURG   CLEAR     45  32  61 E9        29.62S
SMITH CENTER   CLEAR     43  30  61 SE12      29.65S
HAYS           CLEAR     48  34  58 SE12      29.61S
RUSSELL        CLEAR     46  34  62 SE13      29.63R
CONCORDIA      CLEAR     44  31  60 SE10      29.70R
SALINA         CLEAR     48  32  53 SE12      29.71S
TOPEKA         CLEAR     37  32  82 E9        29.80F WCI  30



USA.gov is the U.S. government's official web portal to all federal, state and local government web resources and services.